Vertical_Velocity
-1 -2 -2 -2 -2 -2 -1 -1 -1 -1 -0 -0 -0 -0 0 0 0 -0 -1 -1 -1 -0 0 0 0 0 0 -0 -0 -1 -1 -1 -1 -1 -1 -1 -1 -1 -2 -1 -1 -0 -0 1 3 4 4 2 1 -0 -2 -1 0 2 2 1 0 0 1 1 1 0 0 0 -0 -0 -0 -0 -0 0 0 0 -0 -0 -1 -1 -0 -0 0 -0 -1 -1 -1 -1 -1 -1 -1 -1 -1 -1 -1 -1 -1 -1 -1 -1 -1 -1 -1 -1 -1 -1 -1
-2 -2 -2 -2 -2 -2 -2 -2 -1 -1 -1 -1 -1 -0 -0 0 0 -0 -1 -1 -1 -1 -1 -0 -0 0 0 0 0 -0 -0 -0 -0 -0 -0 -1 -1 -1 -2 -2 -2 -1 -1 1 3 4 4 3 2 -0 -2 -2 -0 2 3 1 1 1 1 1 1 1 1 1 0 0 -0 -0 0 0 0 0 0 -0 -1 -1 -0 -0 0 -0 -0 -1 -1 -1 -1 -1 -0 -1 -1 -1 -1 -1 -1 -1 -1 -1 -1 -1 -1 -1 -1 -1 -1
-2 -2 -2 -2 -2 -2 -2 -2 -2 -2 -2 -1 -1 -1 -0 -0 0 -0 -1 -1 -1 -1 -1 -1 -1 -0 0 0 0 0 1 1 1 0 -0 -0 -1 -1 -1 -1 -2 -2 -2 -0 2 4 4 4 2 1 -1 -1 -1 1 2 1 1 1 1 1 1 1 1 1 1 1 0 0 0 0 -0 0 0 0 -0 -1 -1 -0 -0 -0 -0 -1 -1 -1 -1 -1 -1 -0 -1 -1 -1 -1 -1 -1 -1 -1 -1 -1 -1 -1 -1 -1 -1
-2 -2 -2 -2 -1 -1 -1 -1 -1 -2 -2 -2 -2 -1 -1 -0 -0 0 -0 -2 -2 -1 -0 -1 -1 -1 -0 -0 0 1 2 2 2 1 1 0 -0 -1 -1 -1 -1 -2 -2 -1 1 4 5 4 3 1 -0 -1 -0 1 1 1 1 1 1 1 1 1 1 1 1 1 1 0 0 0 -0 0 0 0 0 -0 -0 -0 -0 -0 -0 -0 -1 -1 -1 -1 -1 -0 -0 -0 -1 -1 -1 -1 -1 -1 -1 -1 -1 -1 -1 -1 -1
-1 -2 -2 -2 -2 -2 -1 -1 -1 -1 -2 -2 -2 -1 -1 -1 -0 0 1 -0 -2 -2 -1 -1 -1 -2 -2 -2 -1 -0 0 1 1 1 1 1 0 -0 -0 -0 -1 -1 -2 -1 1 4 5 4 3 2 0 -0 0 1 2 1 1 1 1 1 2 2 2 1 1 1 1 1 1 0 -0 0 0 1 1 0 0 -0 -0 -0 -0 -0 -1 -1 -1 -1 -1 -1 -0 -0 -0 -1 -1 -1 -1 -1 -1 -1 -1 -1 -1 -1 -1
-0 -1 -1 -1 -2 -2 -2 -2 -1 -1 -2 -2 -2 -2 -1 -1 -1 -0 1 1 0 -1 -2 -2 -1 -1 -2 -3 -3 -3 -2 -1 -0 0 1 1 0 0 1 1 -0 -1 -2 -2 0 3 5 4 3 2 0 -1 -0 1 2 2 2 1 1 1 2 2 2 2 1 1 1 1 1 1 1 0 0 0 1 1 1 0 0 -0 -0 -0 -0 -1 -1 -1 -1 -1 -1 -0 -0 -0 -0 -1 -1 -1 -1 -1 -1 -1 -1 -0 -0
-0 -0 -0 -0 -1 -2 -2 -2 -2 -2 -1 -2 -2 -2 -1 -1 -1 -1 -0 1 1 1 -0 -2 -1 -0 0 -1 -2 -2 -2 -1 -1 -0 0 1 1 1 1 1 0 -1 -2 -2 -0 2 4 4 3 2 0 -1 -1 1 2 3 2 1 1 1 1 2 2 2 2 1 1 1 1 1 1 1 1 1 1 1 1 1 1 0 -0 -0 -0 -1 -1 -1 -1 -1 -1 -1 -0 -0 -0 -0 -0 -1 -1 -1 -1 -1 -0 -0 -0
-0 -0 0 0 -0 -0 -1 -2 -2 -2 -2 -2 -2 -2 -2 -1 -1 -1 -1 -1 0 1 0 0 -0 0 2 2 1 -0 -1 -1 -0 0 0 1 1 1 1 1 1 -0 -2 -2 -0 1 3 3 3 2 -0 -1 -1 -0 2 3 2 1 1 1 1 1 2 2 2 2 1 1 1 1 1 1 1 1 1 1 1 1 1 0 0 -0 -0 -1 -1 -1 -1 -1 -1 -1 -1 -0 -0 -0 -0 -0 -1 -1 -0 -0 -0 -0 -0
-1 -0 -0 -0 0 1 0 -0 -1 -2 -2 -2 -2 -2 -2 -2 -1 -1 -1 -1 -0 0 -1 -0 -0 -1 0 2 2 1 0 -0 -0 -0 0 0 1 1 2 1 1 -0 -1 -1 -1 1 2 2 1 1 -0 -2 -2 -1 2 3 2 1 0 1 1 1 1 2 2 1 1 1 1 1 1 1 1 1 1 1 1 1 1 1 0 -0 -0 -1 -1 -1 -1 -1 -1 -1 -1 -1 -0 -0 -0 -0 -0 -1 -0 -0 -0 -0 -0
-1 -1 -1 -0 0 1 1 1 0 -0 -1 -1 -2 -2 -2 -2 -2 -2 -2 -1 -1 -0 -1 0 -0 -1 -2 -1 -0 0 1 -0 -0 -0 -0 -0 -0 0 1 1 1 0 -1 -1 -0 1 1 1 0 -0 -1 -2 -2 -1 2 3 2 1 -0 0 1 1 1 1 1 1 1 1 1 1 1 1 1 1 1 1 1 1 1 1 1 0 -0 -0 -1 -1 -1 -1 -1 -1 -1 -1 -0 -0 -0 -0 -0 -0 -0 -0 -0 -0 -0
-0 -1 -1 -1 -0 0 1 1 1 0 -0 -1 -1 -1 -2 -2 -3 -3 -3 -2 -1 -1 -1 -0 1 1 -0 -1 -1 -1 -1 -1 -1 -1 -1 -1 -1 -1 0 0 0 -0 -1 -1 0 1 1 1 -0 -1 -2 -2 -2 -1 2 2 2 1 -0 0 1 1 1 1 1 1 1 1 1 1 1 1 1 1 1 1 1 1 1 1 1 0 0 -0 -1 -1 -1 -1 -1 -1 -1 -1 -1 -1 -0 -0 -1 -0 -0 -0 -0 -0 -0
0 -0 -1 -1 -1 -0 0 1 1 1 1 -0 -0 -1 -1 -2 -2 -3 -3 -2 -1 -1 -1 -1 -0 1 1 1 0 0 0 -0 -1 -1 -1 -1 -1 -1 -0 0 0 0 -0 -0 1 1 2 1 -0 -1 -3 -3 -2 -1 1 2 2 1 -0 0 1 1 1 1 1 1 1 1 1 1 1 1 1 1 1 1 1 1 1 1 1 1 0 -0 -0 -1 -1 -1 -1 -1 -1 -1 -1 -1 -1 -1 -1 -0 -0 -0 -0 -0 -0
-0 -0 -0 -1 -1 -1 -1 0 1 2 1 1 0 -0 -1 -1 -1 -2 -3 -3 -2 -1 -1 -1 -1 -0 0 0 0 -0 0 1 0 -0 -1 -1 -0 -0 -0 0 0 0 0 0 1 2 2 1 -0 -1 -3 -3 -3 -1 0 2 2 1 0 0 1 1 1 1 1 1 1 1 1 1 1 1 1 1 1 1 1 1 1 1 1 1 0 -0 -0 -1 -1 -1 -1 -1 -1 -1 -1 -1 -1 -1 -1 -0 -0 -0 -0 0 0
-1 -0 -0 -1 -1 -2 -2 -1 0 1 2 1 1 -0 -0 -0 -1 -1 -2 -3 -2 -2 -1 -1 -1 -1 -0 0 0 -0 0 1 1 0 0 0 0 0 0 0 1 1 1 1 2 2 2 1 -0 -1 -2 -3 -3 -2 -0 1 2 1 1 1 1 1 1 1 1 1 1 1 1 1 1 1 1 2 2 1 1 1 1 1 1 1 0 0 -0 -0 -1 -1 -1 -1 -1 -0 -0 -1 -1 -1 -1 -1 -1 -0 -0 0 0
-2 -1 -1 -1 -1 -2 -3 -2 -1 -0 1 1 1 0 -0 -0 -0 -1 -1 -2 -2 -2 -1 -1 -1 -1 -0 0 1 0 0 1 1 1 1 1 1 0 0 1 1 1 1 1 2 3 3 1 0 -1 -2 -2 -2 -2 -0 1 1 1 1 1 1 0 1 1 1 1 1 1 1 1 1 1 1 2 2 2 1 1 1 1 1 1 1 0 0 -0 -1 -1 -1 -1 -1 -0 -0 -0 -1 -1 -1 -1 -1 -1 -0 0 0
-3 -2 -1 -1 -1 -1 -2 -2 -2 -1 -0 0 1 1 0 0 0 -0 -1 -1 -2 -2 -1 -1 -1 -1 -0 0 1 1 0 0 1 1 1 1 1 1 1 1 1 1 1 1 2 3 3 2 0 -0 -1 -2 -2 -2 -1 0 1 1 1 1 1 1 1 1 1 1 1 1 1 1 1 1 1 2 2 2 2 2 1 1 1 1 1 0 0 -0 -0 -1 -1 -1 -1 -1 -0 -1 -1 -1 -1 -1 -1 -1 -0 0 0
-2 -2 -2 -1 -1 -1 -1 -2 -2 -2 -2 -1 0 1 1 1 0 -0 -1 -1 -2 -2 -2 -2 -1 -1 -0 -0 0 1 1 0 -0 -0 0 1 1 1 1 1 1 2 2 2 2 2 3 2 1 -0 -1 -2 -2 -1 -1 0 0 1 1 1 1 1 1 1 1 1 0 1 1 1 1 1 1 2 2 2 2 2 2 1 1 1 1 0 0 -0 -0 -1 -1 -1 -1 -1 -1 -1 -1 -1 -1 -1 -1 -0 -0 -0 0
-3 -3 -3 -2 -2 -1 -1 -2 -2 -3 -3 -2 -1 -0 1 1 0 -0 -0 -1 -2 -2 -2 -2 -2 -2 -1 -0 0 0 0 0 -0 -0 -0 0 1 1 2 2 2 2 2 2 2 2 3 2 1 -0 -1 -2 -2 -1 -1 -0 0 0 0 0 0 1 1 1 1 1 0 0 0 1 1 1 1 2 2 2 2 2 2 1 1 1 0 0 0 -0 -0 -0 -1 -1 -1 -1 -1 -1 -1 -1 -1 -1 -1 -0 -0 -0 0
-3 -4 -4 -3 -2 -1 -1 -1 -2 -3 -3 -3 -2 -1 -0 0 0 0 -0 -1 -1 -2 -2 -3 -3 -3 -2 -1 -0 -0 0 0 -0 -0 -0 0 1 1 1 2 2 3 2 2 2 2 3 3 2 1 -1 -2 -2 -1 -0 -0 0 0 0 0 0 0 1 1 1 0 0 0 0 0 1 1 1 2 2 2 2 2 1 1 1 1 0 -0 -0 -0 0 0 -0 -1 -1 -1 -1 -1 -1 -1 -1 -1 -1 -0 -0 0 0
-2 -3 -4 -4 -3 -2 -1 -1 -1 -2 -3 -3 -3 -2 -1 -1 -0 0 -0 -0 -1 -1 -2 -3 -3 -3 -3 -2 -2 -1 -1 -0 0 0 0 1 1 1 1 2 2 3 3 2 2 2 2 3 2 1 -0 -1 -1 -1 -1 0 0 0 -0 -0 -0 0 0 1 1 0 0 -0 -0 -0 0 1 1 2 2 2 2 2 1 1 1 1 0 -0 -0 -0 0 1 1 -0 -1 -1 -1 -1 -1 -1 -1 -1 -0 -0 0 0 0
-1 -2 -3 -4 -3 -2 -1 -0 -0 -1 -2 -3 -3 -2 -2 -1 -1 -0 0 0 -0 -1 -2 -2 -3 -3 -3 -3 -3 -3 -2 -1 -0 -0 0 1 1 1 1 1 2 3 4 3 2 2 2 2 2 1 0 -1 -1 -1 -0 0 1 0 0 -0 -0 -0 0 1 0 0 0 -0 -0 -0 -0 1 1 2 2 2 1 1 1 1 1 0 -0 -0 -0 -0 0 1 1 1 -0 -1 -1 -1 -1 -1 -1 -1 -0 -0 0 0 0
0 -0 -2 -3 -3 -3 -2 -1 -0 -0 -1 -2 -2 -2 -2 -1 -1 -0 1 1 0 -0 -1 -1 -2 -2 -3 -3 -3 -3 -3 -2 -1 -1 -0 0 1 1 1 1 2 3 3 3 2 2 2 2 2 2 0 -1 -1 -1 -0 0 1 1 0 -0 -0 -0 0 0 0 0 0 -0 -0 -0 -0 0 1 2 2 2 1 1 1 1 1 0 -0 -0 -0 -0 1 1 2 1 1 -0 -1 -1 -1 -1 -1 -1 -0 -0 0 0 1
1 0 -1 -2 -3 -3 -3 -1 -0 0 -0 -2 -2 -2 -2 -2 -1 -1 0 1 1 -0 -1 -1 -1 -2 -3 -3 -3 -3 -3 -2 -1 -1 -1 -1 0 1 1 2 2 2 2 2 2 2 2 2 2 2 0 -1 -1 -1 -1 -0 1 1 1 0 0 0 0 0 0 0 0 -0 -0 -0 -0 -0 1 1 2 2 1 1 1 1 0 -0 -0 -0 -0 -0 1 1 2 2 1 0 -0 -1 -1 -1 -1 -1 -0 -0 0 0 1
1 1 -0 -1 -2 -3 -3 -2 -0 0 -0 -1 -2 -3 -3 -2 -1 -1 -1 -0 0 0 -0 -0 -1 -2 -2 -3 -3 -3 -1 -1 -1 -1 -1 -1 -1 -0 1 2 2 2 2 2 2 2 2 2 2 2 1 -0 -1 -2 -1 -1 0 1 1 1 1 0 0 0 0 0 0 -0 -0 -0 -0 -0 0 1 1 1 1 1 1 0 -0 -0 -0 -0 -0 0 1 1 2 2 1 1 -0 -1 -1 -1 -1 -1 -0 -0 0 0 0
1 1 0 -0 -1 -3 -3 -2 -1 0 0 -0 -1 -2 -3 -2 -2 -1 -1 -1 -0 -0 -0 -0 -1 -1 -2 -3 -3 -2 -1 -0 -0 -1 -1 -1 -1 -0 0 1 1 2 2 2 2 2 2 3 3 3 2 1 -1 -2 -2 -1 -0 0 1 1 1 1 1 1 0 -0 -0 -0 -0 -0 -0 -0 0 0 0 1 1 1 1 0 -0 -0 -0 -0 0 1 1 1 2 2 1 1 0 -0 -1 -1 -1 -1 -0 -0 -0 -0 0
1 1 1 1 -0 -1 -2 -2 -1 -0 1 0 -0 -1 -2 -2 -1 -1 -1 -1 -1 -1 -0 -1 -1 -1 -1 -3 -3 -3 -1 -0 -1 -1 -1 -0 -0 0 -0 1 1 1 2 1 1 2 2 3 3 3 3 2 1 -1 -2 -2 -1 -0 0 1 1 1 1 1 0 -0 -0 -0 -0 -0 -0 -0 -0 -0 0 0 0 0 0 0 -0 -0 -0 -0 1 1 1 2 2 2 1 1 0 -0 -0 -1 -1 -1 -0 -0 -0 -0 -0
0 0 0 0 0 -0 -1 -1 -0 0 1 1 1 1 -0 -1 -1 -1 -0 -1 -1 -1 -1 -1 -1 -1 -1 -2 -3 -3 -2 -1 -1 -2 -1 -0 0 1 0 0 1 1 1 1 1 1 2 2 3 3 3 3 2 0 -1 -2 -2 -1 -0 0 1 1 1 1 1 0 -0 -0 -0 -0 -0 -0 -0 -0 -0 -0 -0 -0 -0 -0 -0 -0 -0 0 1 1 2 2 2 1 1 1 0 -0 -0 -0 -1 -1 -1 -0 -0 -0 -1
-1 -1 0 -0 -0 -0 -0 -1 -0 0 1 1 1 1 1 -0 -0 -0 0 -0 -1 -1 -1 -1 -1 -1 -1 -2 -2 -3 -3 -2 -1 -2 -1 -1 0 1 1 0 0 0 1 1 1 1 1 2 3 3 3 3 3 1 0 -1 -2 -2 -1 -1 0 1 1 2 1 1 0 -0 -0 -0 -0 -0 -0 -0 -0 -0 -0 -0 -0 -1 -1 -1 -0 0 1 1 1 1 1 1 1 1 0 0 0 -0 -0 -1 -1 -1 -1 -1 -1
-1 -1 -0 -0 -1 -1 -1 -2 -1 -0 1 1 1 1 1 0 -0 -0 0 0 0 -0 -0 -0 -1 -1 -1 -2 -2 -2 -2 -2 -1 -1 -1 -1 0 1 2 1 -0 -0 0 0 1 1 1 2 3 3 4 4 3 2 1 0 -1 -2 -2 -1 -1 0 1 1 2 1 1 0 -0 -0 -0 -0 -0 -0 -0 -1 -1 -1 -1 -1 -1 -1 -0 0 1 1 1 1 1 1 1 1 0 0 1 0 -0 -1 -1 -1 -1 -1 -1
-1 -0 -0 -0 -0 -1 -2 -3 -2 -1 -0 1 1 0 -0 -0 -0 -0 -0 0 1 1 0 0 -0 -1 -0 -1 -1 -1 -2 -1 -1 -0 -1 -1 -0 1 2 1 0 -0 0 0 1 1 2 2 3 3 4 4 3 3 2 1 -0 -1 -2 -2 -1 -1 0 1 2 2 1 1 0 0 0 0 -0 -0 -0 -1 -1 -1 -1 -1 -1 -1 -0 1 1 1 1 1 1 1 1 1 1 1 1 0 -0 -1 -1 -1 -1 -1 -1
-1 -1 -0 -0 -0 -1 -2 -3 -3 -2 -0 1 1 0 -1 -1 -1 -1 -0 0 1 1 1 0 -0 -1 -1 -1 -1 -1 -2 -1 -0 -0 -1 -1 -1 -0 0 1 0 0 -0 0 1 1 1 2 3 3 4 4 3 3 2 2 1 0 -1 -2 -2 -2 -1 0 1 2 2 1 1 1 0 0 0 -0 -0 -1 -1 -1 -2 -2 -1 -1 0 1 1 1 1 1 1 1 1 1 1 1 1 -0 -1 -1 -1 -1 -1 -2 -2
-2 -2 -1 0 0 -1 -2 -3 -3 -2 -0 1 1 0 -1 -0 -1 -1 -1 0 1 1 1 1 0 -1 -2 -1 -2 -2 -2 -1 -1 -1 -1 -1 -1 -1 -1 -0 -0 -0 -1 0 1 1 1 2 3 3 4 4 3 3 2 2 2 1 0 -1 -2 -2 -2 -1 0 1 1 1 1 1 1 0 -0 -0 -0 -1 -1 -1 -2 -2 -1 -0 0 1 1 1 1 1 1 1 1 1 1 1 0 -0 -1 -1 -1 -1 -1 -2 -2
-2 -2 -2 1 1 -1 -2 -3 -3 -2 0 1 1 1 0 0 -0 -1 -2 -1 -0 0 1 1 1 0 -0 -1 -2 -2 -1 -1 -0 -0 -1 -0 -1 -1 -2 -1 -1 -1 -1 -0 0 -0 0 1 2 3 4 4 3 2 2 2 2 2 2 0 -1 -2 -2 -1 -0 0 1 1 1 1 1 0 -0 -0 -0 -1 -1 -1 -1 -1 -1 -0 0 1 1 1 1 1 1 1 1 1 1 1 0 -0 -1 -1 -1 -1 -1 -2 -1
-3 -3 -1 1 1 -1 -2 -2 -2 -1 0 1 1 1 0 0 -0 -1 -2 -2 -1 -0 -0 1 1 1 1 1 0 -0 -1 -0 0 1 0 0 0 -0 -1 -1 -2 -2 -1 -1 -0 -1 -1 1 1 2 4 4 3 3 2 2 2 2 2 1 0 -1 -1 -1 -0 0 0 1 1 1 1 0 -0 -0 -0 -1 -1 -1 -1 -1 -1 -0 0 1 1 1 1 1 1 1 1 1 1 0 0 -0 -1 -1 -1 -1 -1 -1 -1
-4 -4 -2 -1 -0 -1 -1 -1 -1 -0 0 0 1 0 0 0 -0 -1 -2 -2 -1 -1 -2 -0 0 0 -0 1 2 1 -0 0 1 2 1 1 0 -0 -0 -1 -2 -2 -2 -1 -1 -1 -1 -0 0 1 3 3 3 2 2 2 2 2 2 2 1 -0 -1 -1 -0 -0 0 0 1 1 1 0 -0 -0 -0 -0 -1 -1 -1 -1 -0 -0 0 1 1 1 1 1 1 1 1 1 1 0 0 -0 -1 -1 -1 -1 -1 -1 -1
-4 -3 -3 -3 -2 -1 -0 -0 -0 -0 1 0 -0 -0 -0 -0 -0 -0 -1 -2 -1 -1 -2 -1 -0 -0 -1 1 2 2 0 1 1 2 2 1 0 -0 1 -0 -1 -2 -2 -2 -2 -1 -1 -0 -0 1 2 2 2 2 2 2 2 3 3 2 1 1 -0 -0 -0 -0 -0 0 1 1 1 0 -0 -0 -0 -0 -1 -1 -1 -1 -0 0 1 1 1 1 1 1 1 1 1 1 1 0 0 -0 -1 -1 -1 -1 -1 -1 -1
-4 -1 3 1 1 3 6 4 2 -0 1 -0 -1 -1 -1 -0 0 1 -0 -1 -2 -1 -2 -1 -0 -1 -0 0 1 1 0 1 2 2 1 1 0 0 1 0 -1 -2 -1 -2 -2 -1 -0 -1 -0 0 1 2 2 2 2 2 3 3 3 2 2 1 1 0 -0 -0 -0 0 1 1 1 0 -0 -1 -0 -0 -1 -1 -1 -1 -0 0 1 1 1 1 1 1 1 1 1 1 1 0 -0 -0 -1 -1 -1 -1 -1 -1 -1
-2 -0 6 4 0 -3 -2 4 3 0 0 -1 -2 -2 -0 -0 1 2 2 -0 -2 -3 -1 -0 -1 -1 -0 0 1 1 1 2 2 2 1 0 0 1 1 1 -0 -1 -2 -3 -2 -1 -0 -1 -0 0 1 1 2 2 1 2 3 2 2 2 2 2 1 1 0 -0 -0 0 1 2 2 0 -0 -1 -0 -0 -1 -1 -1 -1 -0 0 1 1 1 1 1 1 1 1 1 1 0 0 -0 -0 -1 -1 -1 -1 -1 -1 -1
1 1 4 6 6 2 -2 2 2 1 -1 -2 -2 -2 -0 -0 1 2 4 1 -1 -2 -1 -1 -1 -1 -1 -0 0 0 0 2 3 2 1 1 1 1 1 1 1 -0 -2 -3 -3 -2 -1 -1 -1 -0 0 1 1 1 1 2 2 2 2 2 2 2 1 1 0 0 0 1 1 2 2 0 -0 -1 -0 -0 -1 -1 -1 -1 -0 0 1 1 1 1 1 1 1 1 1 1 0 0 -0 -1 -1 -1 -1 -1 -1 -1 -1
3 3 3 9 9 5 2 2 1 -0 -3 -3 -3 -2 -1 0 1 3 4 2 -0 -2 -1 -0 -1 -1 -2 -1 -0 0 -0 2 3 3 2 2 1 1 0 1 1 1 -1 -2 -3 -2 -2 -2 -1 -1 -0 -0 -0 0 1 1 1 1 1 1 1 1 1 1 0 0 0 1 2 2 2 1 -0 -1 -1 -1 -1 -1 -1 -1 -0 1 1 1 1 1 1 1 1 1 1 1 0 -0 -0 -1 -1 -1 -1 -1 -1 -1 -1
2 3 2 8 9 8 4 2 1 -0 -3 -3 -3 -2 -2 0 2 4 5 3 0 -1 -1 0 0 -1 -3 -2 -0 0 -1 2 3 3 2 2 2 1 -0 1 2 2 0 -1 -2 -2 -3 -2 -2 -2 -1 -1 -0 0 0 0 1 1 1 1 1 1 1 0 0 0 0 1 1 2 2 1 -0 -1 -1 -1 -1 -2 -1 -1 0 1 1 1 1 1 2 1 1 1 1 0 0 -0 -1 -1 -1 -1 -1 -1 -1 -1 -1
1 2 3 8 9 8 5 2 1 0 -3 -4 -3 -2 -1 0 2 5 5 3 1 -0 -0 0 1 0 -1 -2 -1 -0 -0 1 2 3 3 2 2 1 1 1 2 2 2 1 -0 -2 -2 -2 -2 -2 -2 -1 -0 1 0 0 0 1 1 1 1 1 1 0 0 -0 0 0 1 1 2 1 0 -0 -1 -1 -2 -2 -1 -0 0 1 1 1 1 1 2 1 1 1 1 0 -0 -0 -1 -1 -1 -0 -0 -0 -0 -0 -0
-0 1 2 8 10 9 7 4 2 0 -2 -4 -4 -3 -1 0 3 5 6 4 2 1 0 1 1 1 0 -0 -1 -1 0 -0 1 1 2 2 1 1 1 2 2 2 2 2 1 -0 -2 -2 -2 -2 -1 -0 0 1 0 1 1 1 1 1 1 2 2 1 0 -0 -0 0 0 1 1 1 1 0 -0 -1 -2 -2 -1 -0 0 1 1 1 1 1 1 1 1 1 1 0 -0 -0 -0 -0 -0 -0 -0 -0 -0 -0 -0
-1 -0 0 6 9 10 8 5 2 -0 -3 -3 -2 -1 -0 0 3 5 5 4 3 2 0 1 2 2 1 0 -0 -1 0 -0 -0 -0 1 1 1 2 2 2 2 2 2 3 2 1 -0 -1 -1 -1 -0 0 1 1 0 1 1 1 1 1 2 2 2 1 1 0 -0 -0 0 0 1 1 1 1 0 -1 -2 -2 -1 -0 0 1 1 1 1 1 1 1 1 1 0 0 -0 -0 -0 -0 -0 -0 -0 -0 -0 -0 -0
-1 -0 -1 2 6 7 4 4 4 3 -0 -1 1 1 -2 1 3 5 6 5 4 3 1 0 1 2 2 1 -0 -0 -0 -1 -1 -1 -0 1 1 2 2 2 2 2 2 2 2 2 1 -0 -0 0 1 1 1 1 0 0 0 0 1 2 2 3 3 2 1 1 0 -0 -0 0 1 1 1 1 1 -0 -1 -2 -1 -0 0 1 1 1 1 1 1 1 1 1 0 -0 -0 -0 -0 -0 -0 -0 -0 -0 -0 -0 -0
-1 -0 -1 -1 1 2 1 2 8 13 8 2 1 2 0 2 3 5 6 6 5 4 2 0 0 1 1 1 0 -0 -1 -1 -1 -0 -0 0 1 1 2 1 2 2 2 2 2 1 1 0 0 1 1 1 1 1 -0 -0 -0 0 2 2 3 3 3 2 2 1 0 -0 -0 -0 0 1 1 1 1 0 -1 -1 -1 -0 0 1 1 1 1 1 1 1 1 0 -0 -0 -1 -1 -0 -0 -0 -0 -0 -0 -0 -0 -0
-0 0 -0 -0 -1 -1 -1 -1 14 26 15 12 6 -0 0 1 3 5 7 6 5 3 1 0 -0 -0 -1 -0 0 0 -1 -1 -0 -0 -0 -0 1 1 2 1 2 2 3 2 1 1 0 0 0 1 1 1 1 0 -0 -1 -1 -0 1 2 3 3 4 3 2 1 0 -0 -0 -0 -0 0 1 1 1 0 -0 -1 -1 -0 0 1 1 1 1 1 1 1 0 -0 -0 -1 -1 -0 -0 -0 -0 -0 -0 -0 -0 -0 -0
-0 1 0 1 -0 -1 -3 -3 13 25 13 20 12 1 -2 2 5 6 7 6 5 2 -0 -0 -0 -1 -1 -1 -0 0 0 -0 0 0 -0 -0 0 2 3 2 2 2 2 2 1 0 -0 0 0 0 1 1 1 0 -1 -2 -1 -1 -0 1 3 4 3 3 2 2 1 1 0 -0 -0 -0 0 1 1 0 -0 -0 -1 -0 0 1 1 1 1 1 1 1 0 -0 -1 -1 -1 -0 -0 -0 -0 -0 -0 -0 -0 -0 -0
-1 0 1 1 0 -1 -2 -4 2 13 28 21 19 13 -4 2 5 6 6 6 4 2 -1 -1 -1 -0 -0 -1 -1 -0 1 1 0 0 1 2 1 1 3 4 2 1 -0 1 1 1 0 0 1 1 1 1 1 -0 -1 -1 -1 -1 -0 1 2 3 3 3 2 2 2 2 1 0 -0 -0 -0 0 0 0 -0 -0 -0 -0 1 1 1 1 1 1 1 1 0 -0 -1 -1 -0 0 0 -0 -0 -0 -0 -0 -0 -0 -0
-1 0 1 1 1 -0 -1 -3 -4 5 33 23 22 17 -3 -1 2 6 6 5 5 3 -0 -1 -0 1 2 -0 -1 -0 1 1 1 2 6 5 2 0 1 1 1 -0 -0 1 2 2 1 1 1 1 1 1 0 -0 -1 -1 -1 -1 -0 1 2 2 2 2 2 2 2 2 1 0 -0 -0 -0 -0 0 -0 -0 -0 -0 -0 1 1 1 2 2 2 1 1 0 -0 -0 -0 0 0 0 -0 -0 -0 -0 -0 -0 -0 -0
0 2 -0 1 1 0 -0 -1 -4 -1 12 21 20 15 12 -2 -0 8 11 8 6 4 2 -1 -1 0 4 2 -0 -1 1 -0 1 3 5 3 2 2 1 -1 -0 1 2 2 2 2 2 2 2 2 2 0 -0 -0 -1 -1 -1 -0 0 1 2 2 2 1 1 2 2 2 1 1 -0 -0 -0 -0 0 -0 -0 -0 -1 -0 0 1 1 1 2 1 1 1 -0 -0 -0 0 1 0 -0 -0 -0 -0 0 0 -0 -0 -0
0 2 -0 -0 -0 -0 -0 -0 -2 -4 -2 12 12 9 14 7 6 10 14 11 7 3 -1 -1 -1 -1 1 1 -0 -1 -0 -0 0 2 4 1 1 1 1 1 2 3 3 4 2 1 2 4 3 2 2 -0 -1 -1 -1 -1 -0 -0 -0 1 1 2 2 1 1 1 2 2 1 0 0 -0 -0 -0 0 -0 -0 -1 -1 -0 -0 0 1 1 1 1 1 -0 -0 -0 0 1 1 0 -1 -0 -0 0 0 0 -0 -0 -0
-1 -0 -0 -1 -1 -1 -0 -0 -2 -3 -3 5 11 14 11 20 18 11 8 7 5 2 -2 -1 -0 0 -1 -1 -1 -1 -2 -0 0 1 2 1 0 -0 0 4 4 2 -0 3 1 0 4 6 5 2 1 -0 -1 -2 -2 -0 -0 -0 -0 1 1 1 2 2 1 1 2 1 0 -0 0 0 0 0 0 -0 -1 -1 -1 -1 -0 0 1 1 1 0 -0 -1 -1 -0 1 1 1 -0 -1 -0 0 0 0 0 -0 -0 -1
-2 -2 -1 -1 -0 1 1 1 -0 -2 -4 -0 10 17 14 15 14 10 3 5 4 4 5 1 1 2 -1 -4 -3 -2 -2 -0 0 0 -1 -1 0 1 -1 1 1 -0 -1 2 3 3 4 6 4 1 -3 -1 -1 -1 -2 -0 -0 -1 -0 0 1 1 2 2 2 2 2 -0 -1 -1 0 0 1 1 1 -0 -1 -1 -1 -1 -0 0 1 0 -0 -1 -1 -1 -1 0 2 1 1 -0 -0 -0 0 1 1 0 -0 -0 -1
-2 -3 -2 -2 1 4 2 2 1 -0 -4 -3 6 14 12 11 10 7 -0 3 4 4 3 3 3 2 -0 -3 -3 -1 0 -1 -1 -1 -2 -3 -0 2 0 -1 0 2 2 4 4 4 3 2 1 0 -2 -1 -0 -0 -2 -1 -1 -1 -1 0 1 1 2 2 3 3 1 -0 -1 -1 -0 0 1 1 1 -0 -0 -1 -1 -0 -0 0 0 0 -1 -1 -2 -1 -0 1 2 1 0 -0 -0 -0 0 1 0 0 -0 -0 -1
-1 -1 -2 -1 -0 1 2 2 1 -0 -2 -3 5 14 18 15 10 4 0 3 5 6 4 5 4 2 1 -1 -1 -2 -0 -2 -2 -2 -1 -2 -1 1 2 1 1 2 2 2 2 2 1 0 1 2 -1 -1 1 1 -2 -1 -1 -0 -1 0 1 1 1 2 3 3 1 0 -0 -0 -1 -0 1 1 0 0 0 -0 -0 0 0 0 0 -0 -1 -2 -2 -1 0 1 2 1 -0 -0 -0 -0 0 0 0 0 -0 -0 -0
1 1 0 0 -0 -1 0 2 1 -0 -1 -3 4 13 20 25 16 6 10 4 7 14 20 12 5 1 0 -0 -1 -2 -2 -2 -2 -2 -0 -0 -0 0 2 1 -0 -0 1 1 1 2 1 2 4 3 -3 -2 1 2 -0 -0 -0 -0 -0 0 1 1 1 2 2 3 2 1 0 -0 -1 -0 -0 0 -0 0 1 0 0 1 1 0 -0 -1 -2 -2 -1 -0 1 1 1 0 -0 -0 -0 -0 0 0 0 0 -0 -0 -0
1 2 2 2 1 0 -0 -1 -0 -0 -0 -2 2 11 24 29 20 12 14 6 7 14 23 16 6 -1 -1 -1 -1 -2 -2 -1 -1 -1 -1 -0 0 1 1 0 0 1 2 1 1 3 3 4 4 1 -2 -1 -0 1 2 1 -0 -1 -0 -0 0 1 1 2 2 3 3 2 0 -0 -1 -1 -1 -0 -0 0 1 1 1 1 1 0 -1 -2 -2 -1 -0 1 1 1 0 -0 -0 -0 -0 0 0 0 0 0 -0 -0 -0
2 3 4 6 4 1 0 -1 -1 -1 -0 -1 1 6 15 18 14 9 5 4 8 16 26 17 6 -2 -2 -2 -2 -2 -1 -0 0 -0 -1 -1 0 1 2 1 2 2 1 1 1 2 4 3 2 0 1 0 -1 -1 2 1 -0 -2 -1 -1 0 1 1 1 2 2 3 2 0 -0 -1 -1 -1 -0 -0 0 1 1 2 2 1 -0 -1 -2 -1 -0 0 1 1 0 -0 -0 -0 0 0 0 1 1 1 0 -0 -0 -0
2 3 4 4 3 2 1 0 -1 -1 3 1 1 2 4 6 4 1 1 6 14 24 34 18 5 -3 -3 -3 -2 -1 1 1 0 -0 -0 -0 0 1 3 2 1 -0 0 0 1 1 2 1 1 1 1 -0 -1 -1 -0 -0 -1 -1 -1 -1 0 1 1 1 2 2 3 1 0 -0 -1 -1 -1 -1 -0 -0 0 1 2 1 0 -1 -2 -1 -0 1 1 0 0 0 -0 -0 0 0 1 1 1 1 0 0 -0 -0 -0
2 3 4 3 3 2 2 1 -0 -1 1 -1 0 2 5 2 -0 -1 -0 10 21 30 37 20 6 -2 -3 -3 -2 -0 1 1 1 -0 -0 1 1 2 2 1 -0 -1 0 1 1 1 2 1 1 1 1 -0 -0 -1 -1 -1 -0 0 -0 -1 -0 1 1 1 1 2 2 1 0 -0 -1 -1 -1 -1 -1 -0 0 1 2 1 -0 -1 -1 -0 1 1 1 0 0 -0 0 0 0 1 1 1 1 0 0 -0 -0 -0 0
Height
5871 5871 5871 5870 5870 5870 5870 5870 5870 5870 5870 5870 5870 5869 5869 5869 5869 5869 5869 5868 5868 5868 5868 5868 5868 5868 5868 5868 5867 5867 5866 5866 5866 5866 5866 5866 5865 5865 5865 5865 5865 5865 5865 5865 5865 5865 5865 5865 5864 5864 5864 5864 5865 5865 5865 5865 5864 5864 5864 5864 5864 5864 5864 5864 5864 5864 5863 5863 5863 5863 5863 5862 5862 5862 5861 5861 5860 5860 5860 5859 5859 5859 5858 5858 5858 5857 5857 5856 5856 5855 5855 5854 5854 5854 5853 5853 5852 5852 5851 5851 5850 5850 5850
5869 5869 5869 5869 5869 5869 5869 5869 5868 5868 5868 5868 5868 5868 5868 5868 5868 5868 5867 5867 5867 5867 5867 5866 5867 5867 5867 5866 5866 5866 5865 5865 5865 5865 5864 5864 5864 5864 5864 5864 5864 5864 5864 5864 5864 5864 5864 5864 5863 5863 5863 5863 5863 5864 5864 5863 5863 5863 5863 5863 5863 5863 5863 5863 5862 5862 5862 5862 5862 5862 5861 5861 5861 5860 5860 5859 5859 5859 5859 5858 5858 5857 5857 5857 5856 5856 5855 5855 5854 5854 5854 5853 5853 5853 5852 5852 5851 5851 5850 5850 5849 5849 5849
5868 5868 5868 5868 5867 5867 5867 5867 5867 5867 5867 5867 5867 5867 5867 5867 5867 5866 5866 5866 5866 5865 5865 5865 5865 5865 5865 5865 5864 5864 5864 5864 5864 5864 5863 5863 5863 5863 5862 5862 5862 5862 5862 5862 5863 5862 5862 5862 5862 5861 5861 5861 5861 5862 5862 5862 5862 5862 5862 5862 5862 5862 5861 5861 5861 5861 5861 5861 5860 5860 5860 5860 5859 5859 5859 5858 5858 5858 5857 5857 5856 5856 5856 5855 5855 5855 5854 5854 5853 5853 5853 5852 5852 5851 5851 5851 5850 5850 5849 5849 5849 5848 5848
5866 5866 5866 5866 5866 5866 5866 5865 5865 5865 5865 5865 5865 5865 5865 5865 5865 5865 5865 5864 5864 5864 5864 5864 5864 5864 5863 5863 5863 5863 5863 5863 5863 5862 5862 5862 5861 5861 5861 5861 5860 5860 5860 5860 5861 5861 5860 5860 5860 5860 5859 5859 5860 5860 5860 5860 5860 5860 5860 5860 5860 5860 5860 5860 5860 5860 5859 5859 5859 5859 5858 5858 5858 5858 5858 5857 5856 5856 5856 5855 5855 5855 5854 5854 5854 5854 5853 5853 5852 5852 5851 5851 5850 5850 5850 5849 5849 5849 5848 5848 5847 5847 5847
5865 5864 5864 5864 5864 5864 5864 5864 5864 5864 5864 5864 5864 5864 5864 5864 5864 5864 5864 5863 5863 5863 5863 5863 5862 5861 5862 5861 5861 5862 5861 5861 5861 5861 5861 5860 5860 5860 5860 5859 5859 5859 5859 5859 5859 5859 5859 5859 5858 5858 5858 5858 5858 5858 5858 5858 5858 5858 5859 5859 5859 5859 5859 5859 5859 5858 5858 5858 5858 5857 5857 5857 5857 5857 5856 5856 5855 5855 5854 5854 5854 5853 5853 5853 5853 5852 5852 5852 5851 5851 5850 5850 5849 5849 5849 5848 5848 5848 5847 5847 5846 5846 5845
5864 5863 5863 5863 5863 5863 5863 5862 5862 5862 5862 5862 5862 5862 5862 5862 5863 5863 5862 5862 5862 5861 5861 5861 5861 5861 5860 5860 5859 5859 5859 5859 5859 5859 5859 5859 5859 5858 5858 5858 5858 5857 5857 5857 5858 5858 5857 5857 5856 5856 5856 5856 5856 5856 5856 5857 5857 5857 5857 5857 5857 5857 5857 5857 5857 5857 5857 5857 5856 5856 5856 5856 5855 5855 5855 5854 5854 5854 5853 5853 5852 5852 5852 5851 5851 5851 5851 5850 5850 5849 5849 5849 5848 5848 5847 5847 5846 5846 5846 5845 5845 5844 5844
5862 5862 5862 5862 5861 5861 5861 5861 5861 5861 5861 5860 5860 5861 5861 5861 5861 5861 5861 5861 5861 5860 5860 5860 5860 5859 5859 5858 5858 5858 5858 5858 5858 5858 5858 5857 5857 5857 5857 5857 5856 5856 5855 5855 5856 5856 5856 5855 5854 5854 5854 5854 5854 5854 5854 5855 5855 5855 5855 5855 5855 5855 5855 5855 5855 5855 5855 5855 5855 5855 5854 5854 5854 5854 5853 5853 5853 5852 5852 5851 5851 5850 5850 5850 5849 5849 5849 5849 5849 5848 5848 5847 5847 5846 5846 5845 5845 5845 5844 5844 5844 5843 5843
5860 5860 5860 5860 5860 5860 5859 5859 5859 5859 5859 5859 5859 5859 5859 5859 5859 5859 5859 5859 5859 5859 5860 5859 5859 5859 5858 5857 5857 5857 5856 5856 5856 5856 5856 5856 5855 5855 5855 5855 5854 5854 5854 5854 5854 5854 5854 5853 5853 5852 5852 5852 5852 5852 5853 5853 5853 5853 5853 5853 5853 5853 5853 5853 5854 5854 5854 5854 5853 5853 5853 5853 5853 5852 5852 5852 5851 5851 5850 5850 5849 5849 5849 5849 5848 5848 5848 5847 5847 5847 5846 5846 5846 5845 5845 5844 5844 5844 5843 5843 5842 5842 5841
5859 5859 5859 5859 5859 5859 5858 5858 5858 5857 5857 5857 5857 5857 5857 5857 5857 5857 5857 5858 5858 5858 5859 5858 5857 5857 5856 5856 5855 5855 5855 5854 5854 5854 5854 5854 5854 5854 5854 5853 5853 5853 5852 5852 5852 5852 5852 5851 5851 5850 5850 5850 5850 5850 5851 5851 5851 5851 5851 5851 5851 5851 5851 5851 5852 5852 5852 5852 5852 5851 5851 5851 5851 5851 5850 5850 5850 5849 5849 5849 5848 5848 5847 5847 5847 5846 5846 5846 5845 5845 5845 5844 5844 5844 5844 5843 5843 5842 5842 5841 5841 5840 5840
5857 5857 5857 5857 5857 5857 5857 5857 5856 5856 5856 5856 5856 5856 5855 5855 5855 5855 5855 5856 5855 5855 5856 5856 5855 5854 5854 5854 5854 5853 5853 5853 5853 5853 5853 5852 5852 5852 5852 5852 5851 5851 5851 5851 5850 5850 5850 5849 5849 5849 5848 5848 5848 5849 5849 5849 5849 5849 5849 5849 5849 5849 5849 5849 5849 5850 5850 5850 5850 5850 5849 5849 5849 5849 5849 5849 5848 5848 5848 5847 5847 5846 5846 5845 5845 5845 5844 5844 5844 5844 5844 5843 5843 5843 5842 5842 5841 5841 5840 5840 5839 5839 5839
5855 5855 5855 5855 5855 5855 5855 5855 5855 5854 5854 5854 5854 5854 5854 5854 5854 5854 5854 5854 5854 5853 5853 5854 5854 5853 5853 5852 5852 5851 5851 5851 5851 5851 5850 5850 5850 5850 5850 5850 5850 5849 5849 5849 5849 5849 5848 5848 5847 5847 5846 5846 5846 5847 5847 5847 5847 5847 5847 5847 5847 5847 5847 5848 5848 5848 5848 5848 5848 5848 5848 5848 5848 5847 5847 5847 5846 5846 5846 5846 5845 5845 5844 5844 5844 5843 5843 5843 5843 5842 5842 5842 5841 5841 5841 5840 5840 5839 5839 5839 5838 5838 5837
5854 5853 5853 5853 5853 5853 5853 5853 5853 5853 5853 5853 5853 5852 5852 5852 5852 5852 5851 5851 5852 5851 5851 5851 5851 5851 5851 5851 5850 5850 5849 5849 5849 5849 5849 5849 5849 5848 5848 5848 5848 5848 5848 5848 5847 5847 5847 5846 5845 5845 5845 5844 5845 5845 5845 5846 5845 5845 5845 5845 5845 5845 5845 5846 5846 5846 5846 5846 5846 5846 5846 5846 5846 5845 5845 5845 5845 5844 5844 5844 5844 5843 5843 5843 5842 5842 5841 5841 5841 5841 5840 5840 5840 5839 5839 5839 5839 5838 5838 5837 5837 5836 5836
5852 5852 5851 5851 5851 5851 5851 5851 5851 5851 5851 5851 5851 5851 5850 5850 5850 5850 5849 5849 5849 5849 5849 5849 5849 5849 5849 5849 5849 5849 5848 5848 5848 5847 5847 5847 5847 5847 5846 5846 5846 5846 5846 5846 5846 5845 5845 5844 5844 5843 5843 5843 5843 5843 5844 5844 5844 5844 5844 5844 5844 5844 5844 5844 5844 5844 5844 5844 5844 5844 5844 5844 5844 5844 5844 5843 5843 5843 5843 5842 5842 5842 5841 5841 5840 5840 5840 5839 5839 5839 5839 5839 5839 5838 5838 5838 5837 5837 5836 5836 5835 5835 5834
5850 5850 5849 5849 5849 5849 5849 5849 5849 5849 5849 5849 5849 5849 5849 5849 5848 5848 5848 5848 5848 5848 5847 5847 5847 5847 5847 5847 5846 5846 5846 5846 5846 5846 5845 5845 5845 5845 5845 5844 5844 5844 5844 5844 5844 5844 5844 5843 5842 5842 5841 5841 5841 5841 5842 5842 5842 5842 5842 5842 5842 5842 5842 5842 5842 5842 5842 5842 5842 5842 5842 5842 5842 5842 5842 5842 5841 5841 5841 5840 5840 5840 5840 5839 5839 5839 5838 5838 5838 5838 5838 5837 5837 5837 5836 5836 5836 5835 5835 5834 5834 5834 5833
5848 5848 5848 5847 5847 5847 5847 5847 5847 5847 5847 5847 5847 5847 5847 5847 5847 5846 5846 5846 5846 5846 5845 5845 5845 5845 5845 5845 5845 5844 5844 5844 5844 5844 5844 5844 5844 5843 5843 5843 5843 5842 5842 5842 5842 5842 5842 5841 5841 5840 5840 5839 5839 5840 5840 5840 5840 5840 5840 5840 5840 5840 5840 5840 5840 5840 5840 5840 5840 5840 5840 5840 5840 5840 5840 5840 5839 5839 5839 5839 5839 5838 5838 5838 5837 5837 5837 5836 5836 5836 5836 5836 5835 5835 5835 5834 5834 5834 5833 5833 5832 5832 5832
5846 5846 5846 5845 5845 5845 5845 5845 5845 5845 5845 5845 5845 5845 5845 5845 5844 5844 5844 5844 5844 5844 5844 5843 5843 5843 5843 5843 5843 5843 5843 5843 5842 5842 5842 5842 5842 5841 5841 5841 5841 5841 5840 5840 5840 5840 5840 5839 5839 5839 5838 5838 5838 5838 5838 5838 5838 5838 5838 5838 5838 5838 5838 5839 5839 5839 5839 5839 5839 5839 5839 5839 5839 5839 5838 5838 5838 5838 5837 5837 5837 5836 5836 5836 5836 5835 5835 5835 5834 5834 5834 5834 5834 5834 5833 5833 5833 5832 5832 5831 5831 5830 5830
5844 5844 5844 5844 5843 5843 5843 5843 5843 5843 5843 5843 5843 5843 5843 5843 5843 5843 5842 5842 5842 5842 5842 5841 5841 5841 5841 5841 5841 5841 5841 5840 5840 5840 5840 5840 5840 5839 5839 5839 5839 5839 5839 5839 5839 5839 5838 5838 5837 5837 5837 5836 5836 5836 5836 5836 5836 5836 5836 5836 5836 5837 5837 5837 5837 5837 5837 5837 5837 5837 5837 5837 5837 5837 5837 5836 5836 5836 5835 5835 5835 5835 5834 5834 5834 5834 5834 5833 5833 5833 5833 5833 5832 5832 5832 5831 5831 5831 5830 5830 5829 5829 5829
5841 5841 5841 5841 5841 5841 5841 5841 5840 5840 5840 5840 5841 5841 5841 5841 5841 5840 5840 5840 5840 5840 5840 5839 5839 5839 5839 5839 5839 5839 5839 5839 5839 5838 5838 5838 5838 5838 5837 5837 5837 5837 5837 5837 5837 5837 5836 5836 5835 5835 5835 5835 5834 5834 5834 5834 5834 5835 5835 5835 5835 5835 5835 5835 5835 5835 5835 5835 5835 5835 5835 5835 5835 5835 5835 5834 5834 5834 5834 5833 5833 5833 5833 5833 5833 5832 5832 5832 5831 5831 5831 5831 5831 5830 5830 5830 5829 5829 5829 5828 5828 5827 5827
5839 5839 5839 5839 5839 5839 5839 5839 5838 5838 5838 5838 5838 5839 5839 5839 5839 5839 5838 5838 5838 5838 5838 5837 5837 5837 5837 5837 5837 5837 5837 5837 5837 5836 5836 5836 5836 5835 5835 5835 5835 5835 5835 5835 5834 5834 5834 5834 5834 5834 5833 5833 5833 5833 5833 5833 5833 5833 5833 5833 5833 5833 5833 5833 5833 5833 5833 5833 5833 5833 5833 5833 5833 5833 5833 5833 5833 5832 5832 5832 5831 5831 5831 5831 5831 5831 5831 5830 5830 5829 5829 5829 5829 5829 5829 5828 5828 5828 5827 5827 5826 5826 5825
5837 5836 5836 5836 5836 5836 5837 5836 5836 5836 5836 5836 5836 5836 5836 5836 5836 5836 5836 5836 5836 5836 5836 5835 5835 5835 5834 5834 5834 5834 5834 5834 5834 5834 5834 5834 5834 5833 5833 5833 5833 5833 5833 5833 5833 5833 5833 5832 5832 5832 5831 5831 5831 5831 5831 5831 5831 5831 5831 5831 5831 5831 5831 5831 5831 5831 5831 5831 5831 5831 5831 5831 5831 5831 5831 5831 5831 5830 5830 5830 5830 5829 5829 5829 5829 5829 5829 5829 5829 5828 5828 5828 5828 5827 5827 5827 5826 5826 5826 5825 5825 5824 5824
5834 5834 5834 5834 5834 5834 5834 5834 5834 5834 5834 5834 5834 5834 5834 5834 5834 5834 5834 5834 5834 5834 5834 5833 5833 5833 5832 5832 5832 5832 5832 5832 5832 5832 5832 5832 5832 5831 5831 5831 5831 5831 5831 5831 5831 5831 5830 5830 5830 5830 5829 5829 5829 5829 5829 5829 5829 5829 5829 5829 5829 5829 5829 5829 5829 5829 5829 5829 5829 5829 5829 5829 5829 5829 5829 5829 5829 5829 5829 5828 5828 5828 5828 5828 5828 5828 5827 5827 5827 5827 5826 5826 5826 5826 5825 5825 5825 5824 5824 5824 5823 5823 5822
5832 5832 5831 5831 5831 5831 5832 5832 5832 5832 5831 5831 5831 5831 5831 5831 5832 5832 5832 5832 5832 5831 5831 5831 5831 5830 5830 5830 5829 5829 5829 5829 5830 5830 5830 5830 5829 5829 5829 5829 5829 5829 5829 5829 5829 5828 5829 5829 5828 5828 5828 5827 5827 5827 5827 5827 5827 5827 5827 5828 5828 5828 5828 5828 5828 5828 5828 5827 5827 5827 5827 5827 5827 5827 5827 5827 5827 5827 5827 5826 5826 5826 5826 5826 5826 5826 5826 5826 5825 5825 5825 5825 5824 5824 5824 5824 5824 5823 5823 5822 5822 5821 5821
5829 5829 5829 5829 5829 5829 5829 5829 5829 5829 5829 5829 5829 5829 5829 5829 5829 5829 5829 5829 5829 5829 5829 5829 5829 5828 5828 5828 5828 5828 5827 5827 5828 5828 5828 5827 5827 5827 5827 5826 5826 5826 5826 5827 5826 5826 5827 5826 5826 5826 5826 5825 5825 5825 5825 5825 5825 5825 5826 5826 5826 5826 5826 5826 5826 5826 5826 5826 5825 5825 5825 5825 5825 5825 5825 5825 5825 5825 5825 5824 5824 5824 5824 5824 5824 5824 5824 5824 5824 5824 5824 5823 5823 5823 5823 5822 5822 5821 5821 5821 5820 5819 5819
5827 5827 5826 5826 5826 5826 5826 5826 5826 5826 5826 5826 5826 5826 5826 5826 5826 5826 5826 5827 5827 5827 5827 5826 5826 5826 5826 5825 5825 5825 5825 5825 5825 5825 5825 5825 5825 5825 5824 5824 5824 5824 5824 5824 5824 5824 5825 5824 5824 5824 5824 5824 5823 5823 5823 5823 5823 5824 5824 5824 5824 5824 5824 5824 5824 5824 5824 5824 5824 5824 5823 5823 5823 5823 5823 5823 5823 5823 5823 5823 5823 5823 5823 5823 5822 5822 5822 5822 5822 5822 5822 5822 5821 5821 5821 5821 5820 5820 5819 5819 5819 5818 5817
5824 5824 5823 5823 5823 5823 5823 5823 5824 5824 5824 5824 5824 5824 5823 5824 5824 5824 5824 5824 5824 5824 5824 5824 5824 5824 5823 5823 5823 5823 5824 5824 5823 5823 5823 5823 5823 5823 5822 5822 5822 5822 5823 5822 5822 5823 5823 5823 5823 5823 5822 5822 5821 5821 5821 5821 5821 5821 5822 5822 5822 5822 5822 5822 5822 5822 5822 5822 5822 5822 5821 5821 5821 5821 5821 5821 5821 5821 5821 5821 5821 5821 5821 5821 5821 5821 5821 5821 5821 5821 5820 5820 5820 5819 5819 5819 5819 5818 5818 5817 5817 5816 5815
5821 5821 5820 5820 5820 5820 5820 5820 5820 5821 5821 5821 5821 5821 5821 5821 5821 5821 5821 5821 5821 5821 5821 5821 5821 5821 5821 5821 5821 5821 5821 5821 5821 5821 5821 5820 5820 5820 5820 5820 5820 5820 5820 5820 5820 5820 5820 5820 5821 5821 5821 5820 5820 5819 5819 5819 5819 5819 5819 5820 5820 5820 5820 5820 5820 5820 5820 5820 5820 5820 5819 5819 5819 5819 5819 5819 5819 5819 5819 5819 5819 5819 5819 5819 5819 5819 5819 5819 5819 5819 5819 5819 5818 5818 5818 5818 5817 5817 5816 5816 5815 5814 5814
5818 5818 5818 5817 5817 5817 5817 5817 5818 5818 5818 5818 5818 5818 5818 5818 5818 5818 5818 5818 5818 5818 5819 5819 5819 5819 5818 5819 5819 5819 5819 5819 5819 5818 5818 5818 5818 5818 5818 5818 5818 5818 5818 5818 5818 5818 5818 5818 5818 5819 5819 5819 5819 5818 5817 5817 5817 5817 5817 5818 5818 5819 5819 5819 5819 5819 5818 5818 5818 5818 5818 5818 5817 5817 5817 5817 5817 5817 5817 5817 5817 5817 5817 5817 5817 5817 5817 5817 5817 5817 5817 5817 5817 5817 5816 5816 5815 5815 5814 5814 5813 5813 5812
5815 5814 5814 5814 5814 5814 5814 5814 5815 5815 5815 5815 5815 5815 5815 5815 5815 5815 5815 5815 5815 5815 5816 5815 5816 5816 5815 5816 5816 5816 5816 5816 5816 5816 5816 5816 5816 5816 5816 5816 5816 5816 5816 5816 5816 5815 5815 5815 5816 5816 5817 5817 5817 5816 5816 5815 5815 5815 5815 5815 5816 5816 5817 5817 5817 5817 5816 5816 5816 5816 5816 5815 5815 5815 5815 5815 5815 5815 5815 5815 5815 5815 5815 5815 5815 5815 5815 5815 5815 5815 5815 5815 5815 5815 5814 5814 5814 5813 5813 5812 5811 5811 5810
5811 5811 5811 5811 5811 5811 5811 5811 5812 5812 5812 5812 5812 5812 5812 5812 5812 5812 5812 5812 5813 5813 5813 5813 5813 5813 5813 5813 5813 5813 5813 5813 5813 5813 5813 5813 5813 5814 5814 5814 5814 5814 5814 5814 5814 5813 5813 5813 5814 5814 5814 5815 5815 5815 5814 5814 5813 5813 5813 5813 5814 5814 5814 5815 5815 5814 5814 5814 5814 5814 5814 5814 5813 5813 5813 5813 5813 5813 5813 5813 5813 5813 5813 5813 5813 5814 5814 5814 5814 5814 5814 5814 5813 5813 5813 5812 5812 5811 5811 5810 5809 5809 5808
5808 5808 5808 5807 5807 5808 5808 5808 5808 5808 5808 5808 5808 5808 5809 5809 5809 5809 5809 5809 5809 5809 5809 5810 5810 5810 5810 5810 5810 5810 5810 5811 5811 5811 5811 5811 5811 5811 5811 5811 5811 5811 5812 5812 5811 5811 5811 5811 5811 5811 5812 5812 5813 5813 5813 5812 5812 5811 5811 5811 5811 5811 5812 5812 5813 5813 5812 5812 5812 5812 5812 5811 5811 5811 5811 5811 5811 5811 5811 5811 5811 5811 5811 5811 5811 5812 5812 5812 5812 5812 5812 5812 5812 5811 5811 5811 5810 5809 5809 5809 5808 5807 5807
5804 5804 5804 5804 5804 5804 5804 5805 5804 5804 5805 5805 5805 5805 5805 5805 5805 5805 5806 5806 5806 5806 5806 5806 5806 5807 5807 5807 5807 5808 5808 5808 5808 5808 5808 5808 5808 5809 5809 5809 5809 5809 5809 5809 5809 5809 5809 5809 5809 5809 5809 5810 5810 5811 5811 5811 5810 5810 5809 5809 5809 5809 5809 5810 5810 5810 5810 5810 5810 5810 5809 5809 5809 5809 5809 5809 5809 5809 5809 5809 5809 5809 5809 5809 5809 5810 5810 5810 5810 5810 5810 5810 5810 5810 5809 5809 5808 5808 5807 5807 5806 5805 5805
5800 5800 5801 5800 5801 5801 5801 5801 5801 5801 5801 5801 5801 5801 5801 5802 5802 5802 5802 5802 5803 5803 5803 5803 5803 5803 5804 5804 5804 5804 5805 5805 5805 5805 5805 5806 5806 5806 5806 5806 5806 5806 5806 5806 5807 5807 5806 5806 5806 5806 5807 5808 5808 5808 5809 5809 5809 5808 5808 5807 5807 5807 5807 5807 5808 5808 5808 5808 5808 5808 5808 5807 5807 5807 5807 5807 5807 5807 5807 5807 5807 5807 5807 5807 5808 5808 5808 5808 5809 5809 5809 5808 5808 5808 5808 5807 5807 5806 5805 5805 5804 5804 5803
5797 5797 5797 5797 5797 5797 5798 5798 5798 5798 5798 5798 5797 5797 5798 5798 5798 5798 5798 5799 5799 5799 5799 5800 5800 5800 5800 5801 5801 5801 5802 5802 5802 5803 5803 5803 5803 5803 5803 5803 5803 5804 5804 5804 5804 5804 5804 5804 5804 5804 5804 5805 5805 5806 5806 5806 5806 5806 5806 5805 5805 5805 5805 5805 5805 5806 5806 5806 5806 5806 5805 5805 5805 5805 5805 5804 5804 5805 5805 5805 5805 5805 5805 5805 5806 5806 5806 5806 5807 5807 5807 5806 5806 5806 5806 5805 5805 5804 5804 5803 5803 5802 5801
5793 5793 5793 5793 5793 5793 5794 5794 5794 5794 5794 5794 5794 5794 5794 5794 5794 5794 5794 5794 5795 5796 5796 5796 5797 5797 5797 5797 5798 5798 5799 5799 5799 5799 5800 5800 5800 5800 5800 5800 5800 5800 5801 5801 5801 5801 5801 5801 5801 5801 5802 5802 5803 5803 5804 5804 5804 5804 5804 5804 5804 5803 5803 5803 5803 5804 5804 5804 5804 5804 5804 5803 5803 5803 5803 5803 5803 5803 5803 5803 5803 5803 5804 5804 5804 5804 5804 5804 5805 5805 5805 5805 5804 5804 5804 5804 5803 5803 5802 5802 5801 5800 5800
5789 5789 5789 5789 5789 5789 5790 5790 5790 5790 5790 5790 5790 5790 5790 5790 5790 5791 5791 5791 5791 5792 5793 5793 5793 5793 5794 5794 5795 5795 5795 5796 5796 5797 5797 5797 5797 5797 5797 5797 5797 5798 5798 5798 5798 5798 5798 5799 5799 5799 5799 5800 5800 5801 5801 5801 5802 5802 5802 5802 5802 5801 5801 5801 5801 5801 5802 5802 5802 5802 5801 5801 5801 5801 5801 5801 5801 5801 5801 5801 5801 5802 5802 5802 5802 5802 5803 5803 5803 5803 5803 5803 5803 5802 5802 5802 5801 5801 5800 5800 5799 5799 5798
5785 5785 5784 5784 5784 5785 5786 5786 5786 5786 5786 5786 5786 5786 5786 5787 5787 5787 5787 5787 5787 5788 5789 5789 5789 5789 5790 5790 5791 5792 5792 5793 5793 5794 5794 5794 5794 5794 5794 5794 5795 5795 5795 5795 5795 5795 5796 5796 5796 5796 5797 5797 5798 5798 5799 5799 5799 5799 5800 5800 5800 5799 5799 5799 5799 5799 5799 5799 5800 5799 5799 5799 5799 5799 5799 5799 5799 5799 5799 5799 5799 5800 5800 5800 5800 5800 5801 5801 5801 5801 5801 5801 5801 5800 5800 5800 5799 5799 5799 5798 5798 5797 5797
5783 5783 5781 5779 5780 5781 5782 5782 5782 5782 5782 5782 5782 5782 5783 5783 5783 5783 5783 5783 5784 5784 5784 5785 5785 5786 5786 5787 5787 5788 5789 5789 5790 5790 5791 5791 5791 5791 5792 5792 5792 5792 5792 5792 5792 5793 5793 5793 5793 5794 5794 5794 5795 5795 5796 5796 5797 5797 5798 5798 5798 5797 5797 5797 5797 5797 5797 5797 5798 5798 5797 5797 5796 5796 5797 5797 5797 5797 5797 5798 5798 5798 5798 5798 5799 5799 5799 5799 5799 5799 5799 5799 5799 5799 5798 5798 5798 5797 5797 5797 5796 5796 5795
5779 5780 5781 5776 5774 5774 5776 5777 5777 5777 5777 5778 5778 5779 5779 5779 5779 5779 5779 5779 5779 5780 5780 5781 5781 5782 5782 5783 5784 5784 5785 5785 5786 5787 5787 5788 5788 5788 5789 5789 5789 5789 5789 5789 5789 5790 5790 5790 5791 5791 5791 5792 5793 5793 5793 5794 5794 5794 5795 5795 5795 5795 5795 5794 5794 5794 5795 5795 5795 5795 5795 5794 5794 5794 5794 5795 5795 5795 5795 5796 5796 5796 5796 5796 5797 5797 5797 5797 5797 5797 5797 5797 5797 5797 5796 5796 5796 5795 5795 5795 5794 5794 5793
5775 5777 5781 5776 5770 5769 5773 5773 5773 5773 5773 5773 5774 5774 5775 5775 5775 5776 5776 5775 5775 5775 5776 5776 5777 5778 5779 5779 5780 5780 5781 5782 5783 5783 5784 5784 5784 5785 5785 5786 5786 5786 5786 5786 5786 5787 5787 5788 5788 5788 5789 5789 5790 5790 5791 5791 5791 5792 5792 5793 5793 5793 5793 5792 5792 5792 5793 5793 5793 5793 5793 5793 5792 5792 5792 5793 5793 5793 5794 5794 5794 5794 5794 5794 5795 5795 5795 5795 5795 5795 5795 5795 5795 5795 5794 5794 5794 5794 5793 5793 5793 5792 5792
5772 5773 5777 5777 5772 5767 5768 5768 5768 5769 5769 5769 5769 5770 5771 5771 5772 5772 5772 5771 5771 5771 5772 5772 5773 5774 5774 5775 5776 5777 5777 5778 5779 5779 5780 5781 5781 5782 5782 5783 5783 5784 5784 5784 5784 5784 5784 5784 5785 5785 5785 5786 5787 5788 5788 5788 5789 5789 5789 5790 5790 5790 5790 5790 5790 5790 5790 5791 5791 5791 5791 5790 5790 5790 5790 5791 5791 5791 5792 5792 5792 5792 5792 5793 5793 5793 5793 5794 5794 5794 5794 5793 5793 5793 5793 5792 5792 5792 5791 5791 5791 5790 5790
5768 5768 5767 5772 5770 5765 5764 5764 5764 5764 5764 5765 5765 5766 5767 5767 5768 5768 5768 5767 5767 5767 5768 5768 5769 5769 5770 5771 5772 5773 5773 5774 5775 5776 5776 5777 5778 5778 5779 5779 5780 5780 5781 5781 5781 5781 5781 5782 5782 5782 5783 5783 5784 5785 5785 5786 5786 5786 5787 5787 5788 5788 5788 5788 5788 5788 5788 5789 5789 5789 5789 5788 5788 5788 5788 5789 5789 5789 5790 5790 5790 5790 5790 5791 5791 5791 5791 5792 5792 5792 5791 5791 5791 5791 5790 5790 5790 5790 5789 5789 5789 5789 5788
5764 5764 5763 5765 5765 5763 5760 5760 5760 5760 5760 5760 5761 5762 5763 5763 5764 5764 5764 5763 5763 5763 5764 5764 5765 5765 5766 5767 5768 5769 5769 5770 5771 5772 5773 5773 5774 5774 5775 5776 5777 5777 5778 5778 5779 5779 5779 5779 5779 5779 5779 5780 5781 5782 5783 5783 5783 5784 5784 5784 5785 5785 5785 5785 5785 5786 5786 5786 5786 5786 5786 5786 5786 5786 5786 5786 5787 5787 5788 5788 5788 5788 5789 5789 5789 5789 5789 5789 5789 5789 5789 5789 5789 5789 5789 5788 5788 5788 5788 5788 5787 5787 5786
5759 5759 5759 5761 5761 5759 5757 5756 5756 5756 5756 5756 5757 5758 5758 5759 5759 5759 5759 5759 5759 5759 5759 5760 5761 5761 5762 5763 5764 5765 5766 5767 5767 5768 5769 5769 5770 5771 5772 5773 5774 5774 5775 5775 5776 5776 5777 5777 5777 5777 5777 5778 5779 5779 5780 5780 5780 5781 5781 5782 5783 5783 5783 5783 5783 5783 5783 5784 5784 5784 5784 5784 5784 5784 5784 5784 5785 5785 5785 5786 5786 5786 5787 5787 5787 5787 5788 5788 5788 5788 5788 5787 5787 5787 5787 5786 5786 5786 5786 5786 5785 5785 5784
5754 5754 5754 5757 5758 5757 5755 5753 5752 5751 5751 5752 5752 5753 5754 5755 5755 5755 5754 5754 5754 5755 5755 5756 5757 5757 5758 5759 5760 5761 5762 5763 5763 5764 5765 5765 5766 5767 5768 5769 5770 5771 5772 5772 5773 5774 5774 5774 5774 5774 5774 5775 5776 5777 5777 5778 5778 5778 5779 5779 5780 5781 5781 5781 5781 5781 5781 5781 5781 5781 5782 5782 5782 5782 5782 5782 5783 5783 5783 5784 5784 5784 5784 5785 5785 5785 5785 5785 5785 5785 5785 5785 5785 5785 5785 5784 5784 5784 5784 5784 5784 5783 5782
5749 5750 5750 5752 5753 5752 5751 5749 5748 5746 5746 5748 5749 5749 5749 5751 5751 5751 5751 5750 5750 5751 5751 5752 5753 5753 5754 5755 5755 5756 5757 5758 5759 5760 5761 5762 5763 5764 5765 5766 5766 5767 5768 5769 5770 5770 5771 5771 5772 5772 5772 5773 5773 5774 5774 5775 5775 5776 5776 5777 5778 5779 5779 5779 5779 5779 5779 5779 5779 5779 5779 5779 5780 5780 5780 5780 5780 5781 5781 5782 5782 5782 5783 5783 5783 5783 5784 5784 5784 5784 5783 5783 5783 5783 5783 5783 5783 5782 5782 5782 5781 5781 5780
5745 5745 5745 5745 5746 5746 5746 5746 5748 5748 5744 5743 5744 5745 5745 5746 5747 5747 5747 5747 5747 5747 5747 5748 5748 5749 5750 5750 5751 5752 5753 5754 5754 5755 5757 5758 5759 5760 5761 5762 5763 5764 5764 5765 5766 5767 5768 5768 5769 5769 5770 5770 5770 5771 5771 5772 5773 5773 5774 5775 5775 5776 5776 5776 5776 5776 5776 5776 5776 5777 5777 5777 5778 5778 5778 5778 5779 5779 5779 5779 5780 5780 5781 5781 5781 5781 5781 5781 5781 5781 5781 5781 5781 5781 5781 5781 5780 5780 5780 5780 5779 5779 5779
5740 5740 5740 5740 5741 5741 5741 5743 5749 5751 5746 5741 5739 5739 5741 5742 5742 5743 5743 5743 5743 5743 5743 5743 5744 5745 5746 5746 5747 5748 5748 5749 5750 5752 5753 5754 5755 5756 5758 5758 5759 5760 5761 5762 5763 5764 5764 5765 5766 5766 5767 5767 5768 5768 5769 5769 5769 5770 5772 5772 5773 5774 5774 5774 5774 5774 5774 5774 5774 5774 5774 5775 5775 5776 5776 5776 5776 5777 5777 5777 5778 5778 5779 5779 5779 5779 5779 5779 5779 5779 5779 5779 5779 5779 5779 5779 5779 5779 5778 5778 5778 5777 5776
5735 5735 5736 5736 5737 5737 5738 5739 5744 5748 5745 5740 5736 5735 5736 5737 5738 5739 5739 5739 5739 5738 5738 5739 5739 5740 5741 5743 5743 5744 5745 5745 5746 5748 5749 5750 5752 5753 5754 5755 5756 5757 5757 5758 5759 5760 5761 5761 5762 5763 5764 5764 5765 5765 5766 5766 5767 5768 5769 5770 5770 5771 5771 5771 5771 5771 5771 5771 5772 5772 5772 5773 5773 5774 5774 5774 5774 5774 5775 5775 5776 5776 5776 5777 5777 5777 5777 5777 5777 5777 5777 5777 5777 5777 5777 5777 5777 5776 5776 5776 5775 5775 5774
5730 5731 5731 5732 5732 5733 5733 5734 5738 5742 5741 5740 5734 5730 5731 5732 5734 5734 5734 5734 5734 5734 5734 5734 5735 5736 5737 5739 5739 5740 5741 5742 5743 5744 5746 5747 5748 5749 5750 5751 5752 5753 5754 5754 5755 5756 5757 5758 5759 5759 5760 5761 5762 5762 5763 5763 5764 5765 5766 5767 5768 5768 5769 5769 5769 5769 5769 5769 5769 5769 5770 5770 5771 5771 5771 5772 5772 5772 5773 5773 5774 5774 5774 5775 5775 5775 5775 5775 5775 5775 5775 5774 5775 5775 5775 5775 5775 5774 5774 5774 5773 5773 5772
5724 5725 5726 5727 5728 5728 5729 5730 5731 5733 5735 5733 5732 5729 5726 5728 5729 5729 5729 5730 5729 5729 5729 5730 5731 5732 5733 5734 5735 5737 5738 5738 5739 5742 5745 5744 5744 5745 5746 5747 5748 5749 5750 5751 5752 5753 5754 5755 5756 5757 5757 5758 5759 5759 5760 5760 5761 5762 5764 5764 5765 5766 5766 5766 5766 5767 5767 5767 5767 5767 5767 5768 5768 5769 5769 5769 5770 5770 5771 5771 5771 5772 5772 5773 5773 5773 5774 5773 5773 5773 5773 5773 5773 5773 5773 5773 5773 5773 5772 5772 5771 5771 5770
5720 5720 5721 5722 5723 5724 5724 5725 5726 5727 5730 5729 5729 5727 5723 5724 5725 5726 5725 5725 5725 5725 5725 5726 5727 5729 5730 5731 5732 5733 5734 5734 5736 5738 5739 5739 5741 5742 5742 5743 5744 5745 5746 5748 5749 5750 5751 5752 5753 5754 5754 5755 5755 5756 5756 5757 5759 5760 5761 5761 5762 5763 5763 5764 5764 5764 5764 5764 5765 5765 5765 5765 5766 5766 5767 5767 5768 5768 5768 5769 5769 5770 5770 5771 5771 5771 5771 5771 5771 5771 5771 5771 5771 5771 5771 5771 5771 5770 5770 5770 5769 5769 5768
5716 5716 5715 5716 5718 5719 5719 5721 5721 5723 5725 5728 5727 5725 5725 5722 5722 5723 5721 5722 5721 5721 5722 5723 5724 5725 5726 5727 5728 5729 5730 5731 5733 5734 5735 5736 5737 5738 5738 5739 5741 5743 5744 5745 5745 5746 5748 5749 5750 5751 5751 5752 5752 5753 5753 5754 5755 5757 5758 5759 5759 5760 5760 5760 5761 5761 5762 5762 5762 5763 5763 5763 5764 5764 5764 5765 5765 5765 5766 5766 5767 5767 5768 5768 5769 5769 5769 5769 5769 5769 5769 5769 5769 5769 5769 5769 5769 5769 5768 5768 5767 5766 5766
5710 5710 5709 5711 5712 5713 5714 5716 5717 5717 5718 5723 5722 5720 5724 5721 5719 5718 5717 5718 5718 5717 5717 5719 5720 5721 5722 5724 5725 5726 5727 5728 5729 5730 5732 5733 5734 5734 5735 5737 5738 5739 5740 5741 5742 5743 5745 5746 5747 5748 5748 5749 5749 5749 5749 5751 5752 5754 5755 5756 5757 5757 5757 5758 5758 5759 5759 5759 5759 5760 5760 5761 5761 5762 5762 5763 5763 5763 5764 5764 5765 5765 5766 5766 5766 5766 5766 5766 5766 5767 5767 5767 5767 5767 5767 5767 5767 5766 5766 5766 5765 5764 5764
5703 5704 5703 5705 5707 5709 5709 5710 5711 5713 5714 5716 5717 5718 5718 5717 5716 5714 5714 5714 5715 5714 5714 5715 5716 5717 5718 5719 5721 5722 5724 5725 5726 5727 5728 5729 5730 5731 5732 5734 5734 5735 5736 5738 5739 5740 5742 5743 5744 5744 5745 5745 5745 5746 5747 5748 5749 5751 5752 5753 5754 5754 5754 5755 5755 5756 5756 5757 5757 5757 5758 5759 5759 5759 5760 5760 5761 5761 5762 5762 5763 5763 5763 5764 5764 5764 5764 5764 5764 5764 5765 5765 5765 5765 5765 5765 5765 5764 5764 5764 5763 5762 5761
5695 5697 5699 5699 5701 5703 5704 5705 5706 5708 5709 5710 5713 5715 5714 5713 5712 5711 5710 5711 5711 5710 5711 5711 5712 5713 5714 5715 5717 5719 5720 5721 5722 5723 5724 5725 5727 5728 5729 5730 5731 5732 5733 5734 5736 5738 5739 5740 5740 5740 5741 5742 5743 5743 5744 5745 5747 5748 5749 5750 5751 5751 5752 5752 5753 5753 5754 5754 5754 5755 5756 5756 5757 5757 5758 5758 5759 5759 5759 5760 5760 5761 5761 5761 5761 5761 5761 5761 5762 5763 5763 5763 5763 5763 5763 5763 5763 5762 5762 5761 5761 5760 5759
5688 5690 5692 5693 5695 5696 5698 5699 5701 5702 5704 5708 5709 5710 5710 5709 5708 5707 5706 5707 5707 5706 5707 5707 5708 5709 5711 5712 5714 5715 5717 5718 5719 5720 5721 5722 5724 5725 5725 5726 5728 5729 5730 5731 5733 5734 5735 5736 5737 5738 5738 5739 5740 5741 5742 5743 5744 5745 5746 5747 5748 5749 5749 5749 5750 5750 5751 5751 5752 5752 5753 5754 5754 5755 5755 5756 5756 5757 5758 5758 5759 5759 5759 5759 5759 5759 5759 5759 5760 5760 5761 5761 5761 5761 5761 5761 5760 5760 5759 5759 5758 5758 5757
5682 5683 5684 5686 5688 5690 5692 5694 5695 5697 5699 5703 5705 5706 5705 5706 5705 5704 5704 5704 5705 5705 5703 5703 5704 5706 5708 5709 5711 5712 5714 5715 5716 5717 5718 5719 5720 5722 5723 5724 5724 5726 5727 5728 5730 5731 5732 5733 5734 5735 5736 5737 5737 5738 5739 5740 5741 5742 5743 5744 5745 5746 5746 5747 5747 5748 5748 5749 5749 5750 5750 5751 5752 5753 5753 5754 5754 5755 5756 5756 5756 5756 5756 5756 5756 5756 5757 5757 5758 5758 5759 5759 5759 5759 5759 5759 5758 5758 5757 5757 5756 5755 5754
5675 5677 5679 5680 5681 5684 5686 5688 5690 5692 5693 5696 5699 5701 5701 5702 5702 5700 5700 5700 5702 5703 5700 5699 5700 5702 5704 5706 5708 5709 5710 5712 5713 5714 5715 5716 5717 5719 5720 5721 5722 5723 5724 5725 5727 5728 5729 5730 5732 5733 5733 5734 5734 5735 5737 5738 5739 5739 5740 5741 5742 5743 5744 5744 5745 5745 5745 5746 5747 5747 5748 5749 5749 5750 5751 5752 5752 5753 5754 5754 5754 5754 5754 5754 5754 5754 5755 5755 5756 5756 5756 5756 5757 5756 5756 5756 5756 5755 5755 5754 5754 5753 5752
5669 5671 5673 5674 5675 5677 5679 5682 5685 5687 5688 5690 5693 5695 5696 5697 5696 5695 5696 5697 5700 5701 5699 5696 5696 5699 5701 5703 5704 5706 5707 5709 5710 5711 5712 5713 5714 5716 5717 5718 5719 5720 5721 5722 5724 5725 5726 5728 5729 5729 5730 5731 5731 5732 5734 5735 5736 5737 5738 5738 5739 5740 5741 5741 5742 5742 5743 5743 5744 5745 5746 5746 5747 5748 5749 5749 5750 5751 5752 5752 5752 5752 5752 5752 5752 5752 5753 5753 5754 5754 5754 5754 5754 5754 5754 5754 5754 5753 5753 5752 5751 5751 5750
5661 5663 5665 5667 5669 5671 5673 5675 5679 5682 5685 5686 5688 5690 5691 5691 5691 5691 5693 5695 5698 5699 5697 5694 5694 5695 5698 5699 5701 5703 5704 5706 5707 5708 5709 5710 5712 5713 5714 5715 5716 5717 5718 5719 5721 5722 5723 5724 5725 5726 5727 5728 5729 5729 5730 5732 5733 5734 5734 5735 5736 5737 5738 5739 5739 5740 5740 5741 5741 5742 5743 5744 5745 5745 5746 5747 5748 5749 5749 5750 5750 5749 5749 5750 5750 5750 5751 5751 5752 5752 5752 5752 5752 5752 5752 5752 5751 5751 5750 5749 5749 5748 5748
5654 5656 5658 5660 5662 5664 5667 5669 5672 5675 5679 5681 5683 5685 5686 5686 5686 5687 5689 5694 5696 5696 5693 5690 5690 5692 5694 5696 5699 5700 5702 5703 5704 5705 5706 5708 5709 5710 5711 5712 5713 5714 5715 5717 5718 5719 5720 5721 5722 5723 5724 5725 5726 5727 5728 5729 5730 5731 5732 5733 5733 5734 5735 5736 5736 5737 5737 5738 5739 5740 5741 5742 5743 5743 5744 5745 5746 5747 5747 5747 5747 5747 5747 5748 5748 5749 5749 5749 5749 5750 5750 5750 5750 5750 5750 5749 5749 5749 5748 5747 5747 5746 5745